Location: Unspecified
(0.0000°N, 0.0000°E)
Time: 07:19:43
(UTC+00:00)

N. Korean satellite - Visible Passes

Search period start: 19 May 2019 00:00
Search period end: 29 May 2019 00:00
Orbit: 457 x 508 km, 97.2° (Epoch: 18 May)

Date Brightness Start Highest point End Pass type
(mag) Time Alt. Az. Time Alt. Az. Time Alt. Az.
20 May 8.6 05:18:06 10° NE 05:21:08 29° E 05:24:08 10° SSE visible
20 May 10.0 18:40:44 10° WSW 18:41:48 11° W 18:42:51 10° W visible
21 May 9.7 04:55:05 10° E 04:56:12 11° E 04:57:19 10° ESE visible
24 May 9.0 05:11:47 10° NE 05:14:32 23° E 05:17:18 10° SSE visible
24 May 9.7 18:33:15 10° SW 18:35:15 14° W 18:37:14 10° WNW visible
27 May 7.5 05:29:34 10° NNE 05:32:51 48° E 05:36:11 10° S visible
28 May 9.4 05:05:31 10° ENE 05:07:55 18° ESE 05:10:19 10° SE visible
28 May 9.5 18:26:08 10° SW 18:28:40 17° WSW 18:31:11 10° WNW visible
